Regional Weather Roundup
Issued by NWS

Home | Current Version | Previous Version | Text Only | Print | Product List | Glossary Off
Versions: 1 2 3 4 5 6 7 8 9 10 11 12 13 14 15 16 17 18 19 20 21 22 23 24 25 26 27 28 29 30 31 32 33 34 35 36 37 38 39 40 41 42 43 44 45 46 47 48 49 50

000
ASUS43 KIND 272109
RWRIN

WEATHER ROUNDUP FOR INDIANA
NATIONAL WEATHER SERVICE INDIANAPOLIS IN
500 PM EDT SUN JUL 27 2014

NOTE: "FAIR" INDICATES FEW OR NO CLOUDS BELOW 12,000 FEET WITH NO
SIGNIFICANT WEATHER AND/OR OBSTRUCTIONS TO VISIBILITY.

* - STATION DOES NOT REPORT WEATHER SUCH AS PRECIPITATION OR FOG.

+ - STATION NOT QUALITY CONTROLLED BY THE NATIONAL WEATHER SERVICE.
    USE DATA WITH CAUTION...ESPECIALLY DEWPOINT AND RELATIVE
    HUMIDITY OBSERVATIONS.

INZ001>003-010>013-019-020-272200-
NORTHWEST INDIANA

CITY           SKY/WX    TMP DP  RH WIND       PRES   REMARKS
GARY /AIRPORT/ PTSUNNY   84  55  37 W25G44    29.71R
KNOX *+        SUNNY     85  53  33 W22G29    29.68R
LA PORTE +     MOSUNNY   81  56  42 NW15G29   29.70R
MICHIGAN CITY+ MOSUNNY   81  57  44 W14G22    29.70R
MONTICELLO +   MOSUNNY   81  64  56 W17G29    29.69F
RENSSELAER +   SUNNY     81  61  50 W18G28    29.72S
VALPARAISO     SUNNY     83  56  39 W25G36    29.71R

$$

LMZ046-743>745-272200-
SOUTHERN LAKE MICHIGAN

STATION/POSITION TIME  TEMP WIND        PRES
                       AIR  DIR/SP/G
                 (UTC) (F)  (DEG/KT/KT) (MB)
BURNS HARBOR     2100   77  280/ 16/ 20 1006.1S
MICHIGAN CITY    2100   75  260/ 15/ 17   N/A

$$

INZ004-005-014>016-021>024-272200-
NORTH CENTRAL INDIANA

CITY           SKY/WX    TMP DP  RH WIND       PRES   REMARKS
GOSHEN         PTSUNNY   73  67  81 VRB3      29.67F
LOGANSPORT +   PTSUNNY   81  68  65 W12G20    29.70F
PERU/GRISSOM   MOSUNNY   82  71  71 W17       29.70R
ROCHESTER +    MOSUNNY   84  64  51 NW8       29.68F
SOUTH BEND     MOSUNNY   84  58  40 NW21G28   29.68F
WARSAW +       PTSUNNY   72  63  73 CALM      29.69S

$$

INZ006>009-017-018-025>027-272200-
NORTHEAST INDIANA

CITY           SKY/WX    TMP DP  RH WIND       PRES   REMARKS
ANGOLA *+      PTSUNNY   73  64  73 NW8       29.66F
AUBURN +       LGT RAIN  66  61  82 CALM      29.67R
FORT WAYNE     TSTM      68  63  84 NW33G48   29.70R VSB 3/4
HUNTINGTON +   PTSUNNY   78  71  79 NW8G16    29.67S

$$

INZ028-029-035-036-043>045-051>053-272200-
WEST CENTRAL INDIANA

CITY           SKY/WX    TMP DP  RH WIND       PRES   REMARKS
GREENCASTLE +  MOSUNNY   82  70  65 W10G17    29.76S
LAFAYETTE      MOSUNNY   83  61  47 W24G38    29.71S
TERRE HAUTE    PTSUNNY   83  68  60 W12       29.77F

$$

INZ030>032-037>040-046>048-054>057-064-065-272200-
CENTRAL INDIANA

CITY           SKY/WX    TMP DP  RH WIND       PRES   REMARKS
CP ATTERBURY + SUNNY     86  68  54 W14G21    29.73F
COLUMBUS       MOSUNNY   84  72  65 W15G21    29.73F
INDIANAPOLIS   TSTM      79  68  69 W18       29.73F
-EAGLE CREEK   PTSUNNY   80  68  66 W12G20    29.73F
KOKOMO *+      PTSUNNY   73  70  88 W10       29.71R
MARION +       MOSUNNY   78  68  70 W15G25    29.71R
MT COMFORT *+  MOSUNNY   79  73  83 W16       29.72F
SHELBYVILLE    MOSUNNY   82  69  64 W12       29.72S
ZIONSVILLE +   HVY RAIN  82  69  64 W23G30    29.75R

$$

INZ033-034-041-042-049-050-058-059-272200-
EAST CENTRAL INDIANA

CITY           SKY/WX    TMP DP  RH WIND       PRES   REMARKS
MUNCIE         SUNNY     82  67  60 W15       29.68F

$$

INZ060-061-067>069-081>083-085>088-272200-
SOUTHWEST INDIANA

CITY           SKY/WX    TMP DP  RH WIND       PRES   REMARKS
EVANSVILLE     MOSUNNY   89  69  51 NW12G24   29.82F
WASHINGTON +   SUNNY     85  71  63 W12G20    29.79S

$$

INZ062-063-066-070>080-084-089>092-272200-
SOUTH CENTRAL AND SOUTHEAST INDIANA

CITY           SKY/WX    TMP DP  RH WIND       PRES   REMARKS
BLOOMINGTON    SUNNY     84  69  60 W10       29.77F

$$



USA.gov is the U.S. government's official web portal to all federal, state and local government web resources and services.